• In Uzbekistan
  • List of Countries
  • For 7 days
  • Water Temperature
  • Satellite Maps
  • Weather Map
  • Weather Widgets
  • user-avatar
    Login

    Hourly Weather Kipungo

    Today, 29 March, Wednesday

    Time Temperature Precipitation Wind Pressure Humidity
    00:00 +20°C° 0.1 mm 1 mps 653 mmHg 94%
    01:00 +19°C° 0.1 mm 1 mps 653 mmHg 94%
    02:00 +19°C° 0.1 mm 1 mps 653 mmHg 95%
    03:00 +19°C° 0.1 mm 1 mps 652 mmHg 95%
    04:00 +18°C° 0.1 mm 1 mps 652 mmHg 95%
    05:00 +19°C° 0 mm 1 mps 653 mmHg 94%
    06:00 +19°C° 0 mm 1 mps 653 mmHg 93%
    07:00 +20°C° 0 mm 1 mps 653 mmHg 92%
    08:00 +21°C° 0 mm 2 mps 654 mmHg 80%
    09:00 +25°C° 0 mm 3 mps 655 mmHg 69%
    10:00 +27°C° 0 mm 4 mps 655 mmHg 58%
    11:00 +28°C° 0.1 mm 4 mps 655 mmHg 54%
    12:00 +29°C° 0.1 mm 3 mps 654 mmHg 50%
    13:00 +30°C° 0.1 mm 3 mps 654 mmHg 46%
    14:00 +30°C° 0.4 mm 3 mps 653 mmHg 50%
    15:00 +29°C° 0.4 mm 2 mps 653 mmHg 54%
    16:00 +29°C° 0.4 mm 2 mps 652 mmHg 58%
    17:00 +27°C° 0.7 mm 2 mps 652 mmHg 66%
    18:00 +25°C° 0.7 mm 1 mps 652 mmHg 73%
    19:00 +23°C° 0.7 mm 1 mps 652 mmHg 81%
    20:00 +22°C° 1.1 mm 1 mps 652 mmHg 83%
    21:00 +21°C° 1.1 mm 1 mps 652 mmHg 84%
    22:00 +21°C° 1.1 mm 1 mps 653 mmHg 86%
    23:00 +21°C° 0.1 mm 1 mps 653 mmHg 87%

    Tomorrow, 30 March, Thursday

    Time Temperature Precipitation Wind Pressure Humidity
    00:00 +20°C° 0.1 mm 1 mps 653 mmHg 88%
    01:00 +20°C° 0.1 mm 1 mps 653 mmHg 89%
    02:00 +20°C° 0 mm 1 mps 652 mmHg 89%
    03:00 +20°C° 0 mm 1 mps 652 mmHg 89%
    04:00 +20°C° 0 mm 1 mps 652 mmHg 90%
    05:00 +20°C° 0 mm 1 mps 653 mmHg 90%
    06:00 +20°C° 0 mm 1 mps 653 mmHg 90%
    07:00 +20°C° 0 mm 1 mps 653 mmHg 90%
    08:00 +21°C° 0 mm 2 mps 654 mmHg 80%
    09:00 +24°C° 0 mm 3 mps 655 mmHg 70%
    10:00 +27°C° 0 mm 4 mps 655 mmHg 60%
    11:00 +28°C° 0.1 mm 4 mps 655 mmHg 56%
    12:00 +29°C° 0.1 mm 4 mps 654 mmHg 52%
    13:00 +30°C° 0.1 mm 3 mps 654 mmHg 49%
    14:00 +30°C° 0.2 mm 3 mps 654 mmHg 49%
    15:00 +30°C° 0.2 mm 2 mps 653 mmHg 49%
    16:00 +30°C° 0.2 mm 2 mps 653 mmHg 49%
    17:00 +27°C° 0.7 mm 2 mps 653 mmHg 60%
    18:00 +24°C° 0.7 mm 1 mps 653 mmHg 71%
    19:00 +22°C° 0.7 mm 1 mps 653 mmHg 82%
    20:00 +21°C° 0.8 mm 1 mps 653 mmHg 85%
    21:00 +21°C° 0.8 mm 1 mps 654 mmHg 87%
    22:00 +20°C° 0.8 mm 1 mps 654 mmHg 89%
    23:00 +20°C° 0.3 mm 1 mps 654 mmHg 90%

    Day after tomorrow, 31 March, Friday

    Time Temperature Precipitation Wind Pressure Humidity
    00:00 +20°C° 0.3 mm 1 mps 654 mmHg 91%
    01:00 +19°C° 0.3 mm 1 mps 653 mmHg 93%
    02:00 +19°C° 0.1 mm 1 mps 653 mmHg 93%
    03:00 +19°C° 0.1 mm 1 mps 653 mmHg 94%
    04:00 +19°C° 0.1 mm 1 mps 652 mmHg 94%
    05:00 +19°C° 0 mm 1 mps 653 mmHg 94%
    06:00 +19°C° 0 mm 1 mps 653 mmHg 94%
    07:00 +20°C° 0 mm 1 mps 654 mmHg 93%
    08:00 +21°C° 0 mm 2 mps 655 mmHg 83%
    09:00 +24°C° 0 mm 3 mps 655 mmHg 74%
    10:00 +25°C° 0 mm 4 mps 656 mmHg 64%
    11:00 +27°C° 0 mm 4 mps 656 mmHg 58%
    12:00 +28°C° 0 mm 4 mps 655 mmHg 52%
    13:00 +29°C° 0 mm 3 mps 655 mmHg 47%
    14:00 +29°C° 0.2 mm 3 mps 655 mmHg 49%
    15:00 +29°C° 0.2 mm 2 mps 654 mmHg 51%
    16:00 +29°C° 0.2 mm 2 mps 654 mmHg 54%
    17:00 +26°C° 0.8 mm 1 mps 654 mmHg 64%
    18:00 +24°C° 0.8 mm 1 mps 653 mmHg 73%
    19:00 +21°C° 0.8 mm 1 mps 653 mmHg 83%
    20:00 +21°C° 0.4 mm 1 mps 654 mmHg 85%
    21:00 +20°C° 0.4 mm 1 mps 654 mmHg 86%
    22:00 +20°C° 0.4 mm 1 mps 654 mmHg 87%
    23:00 +20°C° 0 mm 1 mps 654 mmHg 87%

    1 April, Saturday

    Time Temperature Precipitation Wind Pressure Humidity
    00:00 +20°C° 0 mm 1 mps 654 mmHg 87%
    01:00 +18°C° 0 mm 0 mps 654 mmHg 86%
    02:00 +20°C° 0 mm 1 mps 653 mmHg 87%
    03:00 +19°C° 0 mm 1 mps 653 mmHg 88%
    04:00 +18°C° 0 mm 1 mps 653 mmHg 89%
    05:00 +19°C° 0 mm 1 mps 653 mmHg 89%
    06:00 +19°C° 0 mm 1 mps 654 mmHg 88%
    07:00 +19°C° 0 mm 1 mps 654 mmHg 88%
    08:00 +20°C° 0 mm 2 mps 655 mmHg 76%
    09:00 +24°C° 0 mm 3 mps 656 mmHg 65%
    10:00 +26°C° 0 mm 3 mps 656 mmHg 53%
    11:00 +27°C° 0 mm 3 mps 656 mmHg 48%
    12:00 +29°C° 0 mm 3 mps 655 mmHg 43%
    13:00 +30°C° 0 mm 3 mps 655 mmHg 38%
    14:00 +30°C° 0 mm 3 mps 654 mmHg 40%
    15:00 +30°C° 0 mm 2 mps 654 mmHg 41%
    16:00 +30°C° 0 mm 2 mps 653 mmHg 43%
    17:00 +27°C° 0.1 mm 2 mps 653 mmHg 52%
    18:00 +24°C° 0.1 mm 1 mps 653 mmHg 61%
    19:00 +22°C° 0.1 mm 1 mps 653 mmHg 70%
    20:00 +22°C° 0 mm 1 mps 653 mmHg 70%
    21:00 +22°C° 0 mm 1 mps 654 mmHg 71%
    22:00 +21°C° 0 mm 1 mps 654 mmHg 72%
    23:00 +21°C° 0 mm 1 mps 654 mmHg 73%

    2 April, Sunday

    Time Temperature Precipitation Wind Pressure Humidity
    00:00 +20°C° 0 mm 1 mps 653 mmHg 74%
    01:00 +20°C° 0 mm 1 mps 653 mmHg 76%
    02:00 +19°C° 0 mm 1 mps 653 mmHg 77%
    03:00 +19°C° 0 mm 1 mps 653 mmHg 79%
    04:00 +18°C° 0 mm 1 mps 652 mmHg 81%
    05:00 +19°C° 0 mm 1 mps 653 mmHg 81%
    06:00 +19°C° 0 mm 1 mps 654 mmHg 82%
    07:00 +19°C° 0 mm 1 mps 654 mmHg 82%
    08:00 +21°C° 0 mm 2 mps 655 mmHg 69%
    09:00 +25°C° 0 mm 3 mps 656 mmHg 56%
    10:00 +28°C° 0 mm 4 mps 656 mmHg 43%
    11:00 +29°C° 0 mm 4 mps 656 mmHg 39%
    12:00 +30°C° 0 mm 4 mps 655 mmHg 34%
    13:00 +31°C° 0 mm 3 mps 655 mmHg 29%
    14:00 +31°C° 0 mm 3 mps 654 mmHg 29%
    15:00 +31°C° 0 mm 3 mps 654 mmHg 29%
    16:00 +31°C° 0 mm 2 mps 653 mmHg 29%
    17:00 +28°C° 0 mm 2 mps 653 mmHg 36%
    18:00 +24°C° 0 mm 2 mps 653 mmHg 43%
    19:00 +20°C° 0 mm 2 mps 652 mmHg 49%
    20:00 +19°C° 0 mm 2 mps 653 mmHg 49%
    21:00 +19°C° 0 mm 2 mps 653 mmHg 49%
    22:00 +18°C° 0 mm 2 mps 653 mmHg 49%
    23:00 +18°C° 0 mm 1 mps 653 mmHg 51%

    3 April, Monday

    Time Temperature Precipitation Wind Pressure Humidity
    00:00 +16°C° 0 mm 1 mps 652 mmHg 54%
    01:00 +15°C° 0 mm 1 mps 652 mmHg 56%
    02:00 +14°C° 0 mm 1 mps 652 mmHg 58%
    03:00 +14°C° 0 mm 1 mps 651 mmHg 60%
    04:00 +14°C° 0 mm 1 mps 651 mmHg 63%
    05:00 +15°C° 0 mm 1 mps 652 mmHg 62%
    06:00 +16°C° 0 mm 1 mps 653 mmHg 62%
    07:00 +16°C° 0 mm 1 mps 654 mmHg 62%
    08:00 +20°C° 0 mm 2 mps 655 mmHg 52%
    09:00 +24°C° 0 mm 3 mps 655 mmHg 43%
    10:00 +28°C° 0 mm 4 mps 656 mmHg 34%
    11:00 +29°C° 0 mm 4 mps 656 mmHg 31%
    12:00 +30°C° 0 mm 4 mps 655 mmHg 28%
    13:00 +32°C° 0 mm 4 mps 655 mmHg 26%
    14:00 +31°C° 0 mm 3 mps 654 mmHg 26%
    15:00 +31°C° 0 mm 3 mps 654 mmHg 27%
    16:00 +31°C° 0 mm 3 mps 653 mmHg 28%
    17:00 +27°C° 0 mm 2 mps 653 mmHg 37%
    18:00 +24°C° 0 mm 2 mps 652 mmHg 45%
    19:00 +19°C° 0 mm 2 mps 652 mmHg 54%
    20:00 +19°C° 0 mm 2 mps 652 mmHg 54%
    21:00 +18°C° 0 mm 2 mps 652 mmHg 54%
    22:00 +17°C° 0 mm 2 mps 653 mmHg 55%
    23:00 +18°C° 0 mm 1 mps 652 mmHg 59%
    Show more